Simultaneous Nadir Overpasses (SNOs) Predictions

Prediction of SNOs between LANDSAT-8 and NOAA-19 Satellite Orbit:

Table of predicted SNOs for the next 14.0 days since TLE Epoch: 12/11/2021
Index Date (LANDSAT-8) Time (LANDSAT-8) Lat,Lon (LANDSAT-8) SZA (LANDSAT-8 ) Date (NOAA-19) Time (NOAA-19) Lat,Lon (NOAA-19) SZA (NOAA-19 ) Distance(km) Time Diff (sec)
1 12/13/2021 00:56:32 -80.64, 19.58 74.64 12/13/2021 00:56:02 -80.63, 19.50 74.67 2.54 30
2 12/13/2021 01:45:59 80.62,-173.07 105.32 12/13/2021 01:46:56 80.62,-172.94 105.35 2.47 57
3 12/15/2021 06:30:17 80.59, 115.58 105.38 12/15/2021 06:29:03 80.65, 115.58 105.40 6.85 74
4 12/15/2021 07:19:43 -80.62, -76.45 74.57 12/15/2021 07:20:06 -80.62, -76.39 74.55 1.07 23
5 12/17/2021 12:53:26 80.63, 20.17 105.51 12/17/2021 12:53:06 80.64, 20.06 105.50 2.44 20
6 12/17/2021 13:42:57 -80.51,-173.46 74.70 12/17/2021 13:43:59 -80.46,-168.49 74.26 91.60 62
7 12/19/2021 18:27:10 -80.63, 116.78 74.46 12/19/2021 18:26:15 -80.64, 116.83 74.47 1.24 55
8 12/19/2021 19:16:36 80.63, -75.59 105.54 12/19/2021 19:17:09 80.62, -75.48 105.56 2.17 33
9 12/22/2021 00:50:20 -80.63, 21.02 74.47 12/22/2021 00:50:18 -80.63, 21.19 74.46 3.27 2
10 12/24/2021 06:24:02 80.66, 117.85 105.53 12/24/2021 06:23:18 80.64, 117.79 105.49 2.40 44



Historial Predications of SNOs between LANDSAT-8 and NOAA-19
